Lancaster, PA

8:25 AM EDT on September 25, 2016 (GMT -0400)
Lancaster

Weather History for KLNS - November, 2010

Change the Weather History Date:

Saturday, November 27, 2010

  Actual Average Record
Temperature  
Mean Temperature 34 °F -  
Max Temperature 39 °F 52 °F 66 °F (1979)
Min Temperature 30 °F 32 °F 19 °F (1991)
Degree Days  
Heating Degree Days 30    
Moisture  
Dew Point 21 °F    
Average Humidity 57    
Maximum Humidity 67    
Minimum Humidity 47    
Precipitation  
Precipitation 0.00 in - - ()
Sea Level Pressure  
Sea Level Pressure 29.90 in    
Wind  
Wind Speed 13 mph (West)    
Max Wind Speed 25 mph    
Max Gust Speed 33 mph    
Visibility 10 miles    
Events      
Averages and records for this station are not official NWS values.
T = Trace of Precipitation, MM = Missing Value Source: NWS Daily Summary

Daily Weather History Graph

Daily Weather History Graph

Search for Another Location

Airport or City:

Trip Planner

Search our weather history database for the weather conditions in past years. The results will help you decide how hot, cold, wet, or windy it might be!

Date:

Astronomy

Nov. 27, 2010 Rise Set
Actual Time 7:03 AM EST 4:41 PM EST
Civil Twilight 6:34 AM EST 5:11 PM EST
Nautical Twilight 6:00 AM EST 5:44 PM EST
Astronomical Twilight 5:28 AM EST 6:17 PM EST
Moon 10:58 PM EST (11/27) 11:41 AM EST (11/27)
Length of Visible Light 10h 37m
Length of Day
9h 37m
Waning Gibbous, 63% of the Moon is Illuminated
Nov 27
Waning Gibbous
Nov 28
Last Quarter
Dec 5
New
Dec 13
First Quarter
Dec 21
Full

Hourly Weather History & Observations

Time (EST) Temp. Windchill Dew Point Humidity Pressure Visibility Wind Dir Wind Speed Gust Speed Precip Events Conditions
12:53 AM 33.1 °F 24.9 °F 21.0 °F 61% 29.73 in 10.0 mi West 10.4 mph - N/A   Clear
1:53 AM 32.0 °F 24.2 °F 19.9 °F 61% 29.74 in 10.0 mi West 9.2 mph - N/A   Clear
2:53 AM 30.9 °F 22.2 °F 19.9 °F 64% 29.75 in 10.0 mi West 10.4 mph - N/A   Clear
3:53 AM 30.9 °F 22.8 °F 18.0 °F 59% 29.74 in 10.0 mi West 9.2 mph - N/A   Clear
4:53 AM 30.9 °F 22.2 °F 18.0 °F 59% 29.74 in 10.0 mi West 10.4 mph - N/A   Clear
5:53 AM 30.9 °F 25.2 °F 18.0 °F 59% 29.76 in 10.0 mi SW 5.8 mph - N/A   Mostly Cloudy
6:53 AM 30.9 °F 25.2 °F 19.0 °F 61% 29.78 in 10.0 mi WSW 5.8 mph - N/A   Overcast
7:53 AM 33.1 °F 23.4 °F 19.9 °F 59% 29.80 in 10.0 mi West 13.8 mph - N/A   Overcast
8:53 AM 35.1 °F 24.1 °F 23.0 °F 61% 29.80 in 10.0 mi WSW 19.6 mph 26.5 mph 0.00 in   Overcast
9:53 AM 37.0 °F 26.2 °F 23.0 °F 57% 29.83 in 10.0 mi West 21.9 mph 28.8 mph N/A   Overcast
11:53 AM 39.0 °F 28.0 °F 23.0 °F 53% 29.84 in 10.0 mi West 25.3 mph 33.4 mph N/A   Overcast
12:53 PM 39.9 °F 30.0 °F 23.0 °F 51% 29.86 in 10.0 mi West 21.9 mph 32.2 mph N/A   Overcast
1:53 PM 39.9 °F 30.2 °F 23.0 °F 51% 29.88 in 10.0 mi NW 20.7 mph 26.5 mph N/A   Mostly Cloudy
2:53 PM 39.9 °F 30.2 °F 21.0 °F 47% 29.91 in 10.0 mi NW 20.7 mph 28.8 mph N/A   Overcast
3:53 PM 37.9 °F 28.5 °F 21.0 °F 51% 29.95 in 10.0 mi WNW 17.3 mph 27.6 mph N/A   Mostly Cloudy
4:53 PM 36.0 °F 26.7 °F 21.0 °F 55% 29.98 in 10.0 mi WNW 15.0 mph 24.2 mph N/A   Clear
5:53 PM 36.0 °F 26.0 °F 21.0 °F 55% 30.01 in 10.0 mi WNW 17.3 mph 23.0 mph N/A   Overcast
6:53 PM 37.0 °F 27.7 °F 21.0 °F 52% 30.04 in 10.0 mi West 16.1 mph - N/A   Overcast
7:53 PM 37.0 °F 29.8 °F 21.9 °F 54% 30.06 in 10.0 mi West 10.4 mph - N/A   Overcast
8:53 PM 37.0 °F 28.9 °F 21.9 °F 54% 30.07 in 10.0 mi WNW 12.7 mph - N/A   Overcast
9:53 PM 36.0 °F 29.6 °F 23.0 °F 59% 30.09 in 10.0 mi West 8.1 mph - N/A   Overcast
10:53 PM 35.1 °F 27.4 °F 24.1 °F 64% 30.11 in 10.0 mi West 10.4 mph - N/A   Overcast
11:53 PM 35.1 °F 29.3 °F 25.0 °F 67% 30.13 in 10.0 mi West 6.9 mph - N/A   Overcast